[[{"header":{"parameterUnit":"m.s-1","parameterCategory":1,"la1":30.2991,"la2":30.254,"lo1":-89.0895,"lo2":-89.0444,"dy":0.0017,"dx":0.0017,"nx":28,"ny":28,"refTime":"2023-09-23T09:00:00:Z","depth":0,"parameterNumber":2,"parameterNumberName":"U-component_of_WINDS"},"data":[0,0,0,0,0,0,0,0,0,0,0,0,0,0,0,0,0,0,0,0,0,0,0,0,0,0,0,0,0,0,0,0,0,0,0,0,0,0,0,0,0,0,0,0,0,0,0,0,0,0,0,0,0,0,0,0,0,0,-1.1346,-1.1346,0,-1.1368,-1.1368,-1.1369,-1.1356,-1.1355,-1.1355,-1.1354,-1.1378,-1.1379,-1.138,0,0,0,0,0,0,0,0,0,0,0,0,0,-1.1293,-1.1294,-1.1346,-1.1346,-1.1346,-1.1368,-1.1368,-1.1369,-1.1356,-1.1355,-1.1355,-1.1354,-1.1378,-1.1379,-1.138,0,0,0,0,0,0,0,0,0,0,0,0,0,-1.1316,-1.1294,-1.1346,-1.1343,-1.1342,-1.1368,-1.1368,-1.1369,-1.1356,-1.1355,-1.1354,-1.1354,-1.1377,-1.1379,-1.1381,-1.141,0,0,-1.1386,-1.1387,0,0,0,0,0,0,0,0,-1.1314,-1.1317,-1.1343,-1.1343,-1.1343,-1.1358,-1.1358,-1.1383,-1.1357,-1.1351,-1.1354,-1.1353,-1.1372,-1.1374,-1.1381,-1.1412,-1.1413,-1.1386,-1.1387,-1.1388,-1.1389,0,0,0,0,0,0,0,-1.1313,-1.1316,-1.1354,-1.1343,-1.1343,-1.134,-1.1343,-1.1363,-1.1367,-1.1352,-1.1351,-1.1353,-1.1372,-1.1379,-1.1381,-1.1413,-1.1386,-1.1388,-1.1389,-1.139,-1.147,-1.1471,0,0,0,0,0,0,-1.1311,-1.1315,-1.1354,-1.1355,-1.1326,-1.1342,-1.1345,-1.1354,-1.1366,-1.1367,-1.1354,-1.1353,-1.1376,-1.1379,-1.1382,-1.1418,-1.1388,-1.139,-1.1391,-1.1469,-1.147,-1.1471,0,0,0,0,0,0,-1.131,-1.1315,-1.1353,-1.1335,-1.134,-1.1344,-1.1355,-1.1355,-1.1362,-1.1368,-1.1369,-1.1361,-1.1376,-1.1379,-1.1403,-1.1418,-1.1391,-1.1392,-1.1467,-1.1469,-1.147,-1.149,0,0,0,0,0,0,-1.1309,-1.1314,-1.1326,-1.1335,-1.1341,-1.1374,-1.1356,-1.1356,-1.1365,-1.1363,-1.1374,-1.1375,-1.1375,-1.1401,-1.1405,-1.142,-1.1394,-1.1466,-1.1468,-1.147,-1.1488,-1.1492,-1.1495,0,0,0,0,0,-1.1307,-1.133,-1.1326,-1.1331,-1.1355,-1.1375,-1.1378,-1.1377,-1.1366,-1.1378,-1.1382,-1.1375,-1.1416,-1.1403,-1.1408,-1.1424,-1.1465,-1.1468,-1.147,-1.1486,-1.1491,-1.1495,0,0,0,0,0,0,-1.1323,-1.1332,-1.1327,-1.1354,-1.1364,-1.1373,-1.1387,-1.1382,-1.1395,-1.1393,-1.1391,-1.1394,-1.1419,-1.1424,-1.141,-1.1454,-1.1439,-1.1442,-1.145,-1.1454,-1.1458,-1.1456,-1.1395,0,0,0,0,0,-1.1329,-1.1345,-1.1352,-1.1375,-1.138,-1.1383,-1.1391,-1.139,-1.14,-1.1404,-1.141,-1.142,-1.1435,-1.1445,-1.1459,-1.1488,-1.1491,-1.1502,-1.1505,-1.1508,-1.1511,-1.1528,-1.1533,-1.1479,-1.1479,-1.1479,0,0,-1.1343,-1.135,-1.136,-1.1378,-1.1385,-1.1402,-1.1386,-1.1404,-1.1416,-1.1406,-1.143,-1.1434,-1.1445,-1.1472,-1.1484,-1.1477,-1.1527,-1.1511,-1.1514,-1.1515,-1.153,-1.1536,-1.154,-1.148,-1.148,-1.148,0,0,-1.1377,-1.1383,-1.1404,-1.1411,-1.1422,-1.1424,-1.1429,-1.1438,-1.1441,-1.1464,-1.1457,-1.1471,-1.1498,-1.1506,-1.1513,-1.155,-1.1544,-1.1555,-1.1574,-1.159,-1.1594,-1.1598,-1.1611,-1.1616,-1.1558,-1.1558,-1.1558,0,-1.1393,-1.1417,-1.1415,-1.1433,-1.1442,-1.1433,-1.1454,-1.1462,-1.1477,-1.1483,-1.1474,-1.1507,-1.1514,-1.1543,-1.1552,-1.1558,-1.1564,-1.1554,-1.1594,-1.1597,-1.1601,-1.1614,-1.1619,-1.1559,-1.1559,-1.1559,-1.1559,0,-1.1436,-1.1453,-1.1468,-1.1483,-1.1493,-1.1512,-1.1513,-1.1524,-1.1521,-1.1524,-1.1548,-1.1556,-1.1572,-1.1578,-1.1576,-1.1607,-1.1602,-1.1594,-1.1579,-1.1607,-1.1619,-1.1624,-1.1561,-1.156,-1.156,-1.156,0,0,-1.1481,-1.1494,-1.15,-1.1506,-1.1518,-1.1531,-1.155,-1.1565,-1.1574,-1.1585,-1.1601,-1.1623,-1.1615,-1.1624,-1.1623,-1.1636,-1.1665,-1.1626,-1.1627,-1.1634,-1.17,-1.1707,-1.1712,-1.1662,-1.1662,-1.1663,-1.1699,0,-1.1516,-1.1549,-1.1548,-1.1579,-1.1594,-1.1587,-1.1603,-1.1612,-1.1615,-1.1629,-1.1632,-1.1648,-1.1636,-1.1642,-1.1655,-1.1659,-1.1679,-1.1656,-1.1677,-1.1678,-1.1675,-1.1719,-1.1726,-1.1759,-1.1704,-1.1705,-1.1705,0,-1.1561,-1.1573,-1.1606,-1.1615,-1.1621,-1.1636,-1.165,-1.1663,-1.1673,-1.1674,-1.1684,-1.168,-1.17,-1.1684,-1.1711,-1.1696,-1.1704,-1.1708,-1.1709,-1.1711,-1.1694,-1.1722,-1.177,-1.1775,-1.1713,-1.1712,-1.1712,0,-1.1591,-1.1615,-1.1638,-1.1644,-1.1655,-1.1665,-1.167,-1.1679,-1.1689,-1.1701,-1.1707,-1.1721,-1.1729,-1.174,-1.1741,-1.1729,-1.1768,-1.1753,-1.177,-1.177,-1.1779,-1.1779,-1.1829,-1.1784,-1.1784,-1.1784,-1.1784,0,-1.1631,-1.1651,-1.1652,-1.1666,-1.1688,-1.1686,-1.1709,-1.1713,-1.1721,-1.1736,-1.173,-1.1744,-1.1743,-1.1758,-1.1758,-1.1781,-1.1785,-1.1786,-1.1786,-1.1787,-1.1787,-1.1793,-1.1791,-1.1785,-1.1785,-1.1785,-1.1784,0,-1.1668,-1.1669,-1.1694,-1.1702,-1.1704,-1.1721,-1.1728,-1.1741,-1.1743,-1.1762,-1.1767,-1.177,-1.1787,-1.1788,-1.1807,-1.1808,-1.1835,-1.1832,-1.1832,-1.1832,-1.1849,-1.1848,-1.1906,-1.1914,-1.1863,-1.1863,-1.1863,0,-1.1694,-1.1709,-1.1719,-1.1728,-1.1734,-1.1749,-1.1758,-1.1757,-1.1767,-1.1779,-1.1791,-1.1807,-1.182,-1.1847,-1.1851,-1.1866,-1.1864,-1.1883,-1.1866,-1.1867,-1.1865,-1.1864,-1.1866,-1.1887,-1.1887,-1.1888,-1.1888,0,-1.1739,-1.1739,-1.1752,-1.1766,-1.1777,-1.1787,-1.1797,-1.1805,-1.1805,-1.1817,-1.1833,-1.1843,-1.1863,-1.1879,-1.1893,-1.1899,-1.1894,-1.1893,-1.1898,-1.19,-1.1899,-1.19,-1.1841,-1.1892,-1.1892,-1.1891,-1.1891,-1.1891,-1.1772,-1.1785,-1.1794,-1.1809,-1.1816,-1.1826,-1.1839,-1.1842,-1.1856,-1.1871,-1.187,-1.1888,-1.1898,-1.1917,-1.1923,-1.1938,-1.1932,-1.1939,-1.1941,-1.1942,-1.1945,-1.1896,-1.1941,-1.194,-1.194,-1.194,-1.194,0,-1.1817,-1.1822,-1.1836,-1.185,-1.1862,-1.1855,-1.1866,-1.1876,-1.1893,-1.1902,-1.1914,-1.1933,-1.1949,-1.1954,-1.1969,-1.198,-1.1978,-1.1984,-1.1984,-1.1985,-1.1949,-1.1944,-1.1986,-1.1986,-1.1986,-1.1986,-1.1986,-1.1986,-1.1842,-1.1865,-1.1865,-1.1891,-1.1896,-1.1914,-1.1921,-1.1929,-1.1936,-1.1958,-1.1971,-1.1974,-1.1982,-1.1997,-1.2011,-1.2012,-1.2018,-1.2026,-1.2026,-1.1992,-1.1988,-1.1983,-1.1978,-1.2027,-1.2027,-1.2061,-1.2061,-1.2061]},{"header":{"parameterUnit":"m.s-1","parameterCategory":1,"la1":30.2991,"la2":30.254,"lo1":-89.0895,"lo2":-89.0444,"dy":0.0017,"dx":0.0017,"nx":28,"ny":28,"refTime":"2023-09-23T09:00:00:Z","depth":0,"parameterNumber":3,"parameterNumberName":"V-component_of_WINDS"},"data":[0,0,0,0,0,0,0,0,0,0,0,0,0,0,0,0,0,0,0,0,0,0,0,0,0,0,0,0,0,0,0,0,0,0,0,0,0,0,0,0,0,0,0,0,0,0,0,0,0,0,0,0,0,0,0,0,0,0,2.6507,2.6507,0,2.648,2.648,2.6479,2.6414,2.6412,2.6411,2.641,2.6383,2.6383,2.6384,0,0,0,0,0,0,0,0,0,0,0,0,0,2.6502,2.6502,2.6507,2.6507,2.6506,2.648,2.648,2.6479,2.6414,2.6412,2.6411,2.6409,2.6382,2.6383,2.6384,0,0,0,0,0,0,0,0,0,0,0,0,0,2.6492,2.6502,2.6507,2.647,2.6467,2.648,2.648,2.6479,2.6414,2.6412,2.641,2.6408,2.6382,2.6383,2.6384,2.643,0,0,2.6386,2.6387,0,0,0,0,0,0,0,0,2.6493,2.6493,2.6476,2.6473,2.6469,2.6448,2.6468,2.6463,2.6415,2.6434,2.641,2.6407,2.6406,2.6405,2.6404,2.6429,2.6428,2.6386,2.6387,2.6387,2.6388,0,0,0,0,0,0,0,2.6494,2.6493,2.6496,2.6476,2.6472,2.6455,2.6452,2.6467,2.6432,2.6432,2.6428,2.6425,2.6404,2.6404,2.6403,2.6428,2.6386,2.6387,2.6388,2.6388,2.6488,2.649,0,0,0,0,0,0,2.65,2.6494,2.6497,2.6495,2.6476,2.6457,2.6453,2.6457,2.6432,2.6426,2.6427,2.6422,2.6403,2.6402,2.6402,2.6453,2.6387,2.6388,2.6389,2.6486,2.6488,2.649,0,0,0,0,0,0,2.65,2.6501,2.6498,2.6494,2.6492,2.6459,2.6464,2.6457,2.6457,2.6428,2.6421,2.6433,2.6402,2.6401,2.6423,2.6452,2.6388,2.6389,2.6483,2.6486,2.6489,2.6558,0,0,0,0,0,0,2.65,2.6501,2.6518,2.6495,2.6493,2.652,2.6466,2.6458,2.6459,2.6452,2.6432,2.6426,2.64,2.6422,2.6424,2.6452,2.639,2.648,2.6485,2.6488,2.6553,2.6563,2.6572,0,0,0,0,0,2.65,2.6539,2.652,2.652,2.6514,2.6522,2.6521,2.6489,2.6461,2.6478,2.6459,2.6427,2.6449,2.6425,2.6427,2.6455,2.6478,2.6483,2.6488,2.6549,2.6561,2.6572,0,0,0,0,0,0,2.6568,2.6536,2.6513,2.6546,2.6537,2.6511,2.6532,2.6504,2.6503,2.6497,2.6458,2.6454,2.6482,2.6471,2.6445,2.6498,2.6458,2.6464,2.6504,2.6515,2.6525,2.6526,2.6391,0,0,0,0,0,2.6587,2.6596,2.6567,2.6599,2.6596,2.6565,2.6567,2.6544,2.6533,2.6529,2.6511,2.6503,2.6507,2.6511,2.6513,2.6551,2.6545,2.6571,2.6581,2.6589,2.6593,2.6611,2.6622,2.6506,2.6506,2.6506,0,0,2.6625,2.6609,2.6617,2.6612,2.6603,2.6613,2.6562,2.6576,2.6583,2.6531,2.6551,2.6538,2.6525,2.6555,2.6568,2.6547,2.6624,2.6595,2.6601,2.6602,2.6617,2.6628,2.6638,2.651,2.6509,2.6508,0,0,2.6701,2.669,2.6714,2.6706,2.6692,2.6671,2.6677,2.6654,2.6644,2.6663,2.6624,2.6632,2.6641,2.6633,2.663,2.6703,2.6672,2.6705,2.6753,2.6771,2.678,2.6788,2.6812,2.6822,2.671,2.671,2.671,0,2.6751,2.6765,2.6731,2.6746,2.6745,2.6698,2.6722,2.6716,2.6703,2.6703,2.668,2.669,2.6678,2.6705,2.6722,2.6722,2.6727,2.6706,2.6782,2.6789,2.6796,2.6819,2.6828,2.6714,2.6713,2.6713,2.6713,0,2.6826,2.6837,2.6858,2.6847,2.6848,2.6868,2.6836,2.6841,2.6818,2.6799,2.6819,2.6803,2.6801,2.6806,2.6783,2.6829,2.6817,2.6789,2.6747,2.6811,2.6832,2.6841,2.6719,2.6718,2.6717,2.6716,0,0,2.6944,2.6912,2.6921,2.6914,2.6895,2.6902,2.692,2.6918,2.6922,2.6916,2.6929,2.6937,2.691,2.6907,2.6883,2.6899,2.6955,2.6868,2.6867,2.6884,2.7003,2.7024,2.7035,2.6936,2.6937,2.6939,2.7004,0,2.7013,2.7041,2.701,2.7044,2.7053,2.7009,2.7024,2.7014,2.6997,2.7001,2.6983,2.6989,2.6954,2.6951,2.6965,2.6946,2.6979,2.6941,2.6947,2.6947,2.695,2.7046,2.7067,2.713,2.7012,2.7013,2.7014,0,2.7098,2.7095,2.713,2.7107,2.7109,2.7124,2.7118,2.7124,2.7111,2.7097,2.7094,2.7065,2.708,2.7041,2.7061,2.7035,2.7036,2.7027,2.7029,2.7027,2.6984,2.7045,2.7149,2.7158,2.7027,2.7026,2.7025,0,2.7178,2.7182,2.7203,2.7199,2.7174,2.7185,2.7175,2.716,2.716,2.7156,2.7156,2.7154,2.7152,2.7151,2.7122,2.7096,2.7145,2.7104,2.7133,2.7134,2.7144,2.7144,2.7249,2.7147,2.7147,2.7147,2.7147,0,2.7259,2.7281,2.7239,2.7251,2.7275,2.724,2.7264,2.725,2.7237,2.7246,2.7208,2.7217,2.7179,2.7184,2.7162,2.718,2.7181,2.7169,2.7163,2.7172,2.7173,2.7171,2.7165,2.7149,2.7149,2.7148,2.7148,0,2.7352,2.7324,2.7344,2.7318,2.7312,2.7331,2.7308,2.7319,2.73,2.7311,2.7312,2.7281,2.7285,2.7256,2.7255,2.724,2.7269,2.7255,2.7273,2.7268,2.7298,2.7296,2.7405,2.7416,2.7309,2.731,2.7311,0,2.7404,2.742,2.7396,2.7399,2.7391,2.7397,2.7396,2.7362,2.7363,2.735,2.7362,2.7362,2.7361,2.7369,2.7346,2.7345,2.733,2.7368,2.733,2.7338,2.7329,2.7328,2.7329,2.7376,2.7378,2.7379,2.738,0,2.75,2.7485,2.7486,2.7482,2.7483,2.7478,2.7471,2.7476,2.7439,2.7442,2.7445,2.7444,2.7442,2.7442,2.7436,2.7426,2.7396,2.7392,2.7398,2.7407,2.7416,2.741,2.7293,2.739,2.7389,2.7388,2.7387,2.7387,2.7573,2.7584,2.7569,2.7571,2.7562,2.7556,2.7564,2.7546,2.7547,2.7543,2.7523,2.7529,2.7515,2.7504,2.7496,2.75,2.7482,2.7491,2.7494,2.7496,2.7501,2.7417,2.7499,2.7499,2.7499,2.7498,2.7498,0,2.7665,2.7652,2.7655,2.7646,2.7647,2.762,2.761,2.7613,2.7619,2.7609,2.7608,2.7611,2.7611,2.7588,2.7586,2.7593,2.758,2.7594,2.7592,2.759,2.7519,2.7512,2.7605,2.7605,2.7605,2.7605,2.7605,2.7605,2.7713,2.7731,2.7714,2.7727,2.7715,2.772,2.7717,2.7711,2.7702,2.7707,2.7707,2.7693,2.7677,2.7673,2.7671,2.7665,2.7665,2.7683,2.7672,2.7605,2.7595,2.7585,2.7579,2.7684,2.7684,2.7743,2.7743,2.7744]}]]